[[{"header":{"parameterUnit":"m.s-1","parameterCategory":1,"la1":30.2991,"la2":30.254,"lo1":-89.0895,"lo2":-89.0444,"dy":0.0017,"dx":0.0017,"nx":28,"ny":28,"refTime":"2023-08-27T21:00:00:Z","depth":0,"parameterNumber":2,"parameterNumberName":"U-component_of_WINDS"},"data":[0,0,0,0,0,0,0,0,0,0,0,0,0,0,0,0,0,0,0,0,0,0,0,0,0,0,0,0,0,0,0,0,0,0,0,0,0,0,0,0,0,0,0,0,0,0,0,0,0,0,0,0,0,0,0,0,0,0,-0.1939,-0.194,0,-0.2015,-0.2016,-0.2017,-0.2057,-0.2058,-0.2058,-0.2058,-0.2134,-0.2136,-0.2138,0,0,0,0,0,0,0,0,0,0,0,0,0,-0.1826,-0.1828,-0.1939,-0.194,-0.1941,-0.2015,-0.2016,-0.2017,-0.2057,-0.2058,-0.2058,-0.2058,-0.2134,-0.2136,-0.2138,0,0,0,0,0,0,0,0,0,0,0,0,0,-0.1886,-0.1829,-0.1939,-0.197,-0.1973,-0.2015,-0.2016,-0.2017,-0.2057,-0.2058,-0.2058,-0.2058,-0.2133,-0.2136,-0.2139,-0.2154,0,0,-0.2147,-0.2149,0,0,0,0,0,0,0,0,-0.1882,-0.189,-0.1964,-0.1968,-0.1972,-0.2027,-0.2004,-0.2063,-0.2057,-0.2025,-0.2058,-0.2058,-0.2098,-0.2104,-0.2118,-0.2158,-0.2161,-0.2148,-0.215,-0.2151,-0.2152,0,0,0,0,0,0,0,-0.1878,-0.1887,-0.1969,-0.1965,-0.197,-0.1979,-0.1988,-0.2016,-0.206,-0.2028,-0.2031,-0.204,-0.21,-0.2115,-0.212,-0.2162,-0.2148,-0.215,-0.2152,-0.2153,-0.2217,-0.2217,0,0,0,0,0,0,-0.1869,-0.1883,-0.1967,-0.1971,-0.1927,-0.1981,-0.1991,-0.2009,-0.206,-0.2068,-0.204,-0.2042,-0.211,-0.2117,-0.2123,-0.2144,-0.2151,-0.2154,-0.2155,-0.2217,-0.2217,-0.2217,0,0,0,0,0,0,-0.1867,-0.1876,-0.1964,-0.1928,-0.194,-0.1983,-0.2003,-0.2011,-0.2025,-0.2069,-0.2077,-0.2047,-0.211,-0.2119,-0.2146,-0.2147,-0.2155,-0.2157,-0.2217,-0.2217,-0.2217,-0.2186,0,0,0,0,0,0,-0.1863,-0.1875,-0.1882,-0.1928,-0.1942,-0.1986,-0.2003,-0.2012,-0.203,-0.2034,-0.2077,-0.2085,-0.2111,-0.2141,-0.2149,-0.2151,-0.216,-0.2217,-0.2217,-0.2217,-0.2187,-0.2185,-0.2183,0,0,0,0,0,-0.1859,-0.1871,-0.1882,-0.1892,-0.1951,-0.1986,-0.1994,-0.2024,-0.203,-0.2037,-0.2065,-0.2083,-0.2146,-0.2144,-0.2153,-0.2156,-0.2217,-0.2217,-0.2217,-0.2188,-0.2186,-0.2183,0,0,0,0,0,0,-0.1824,-0.1877,-0.1891,-0.1918,-0.1947,-0.1993,-0.2003,-0.202,-0.2048,-0.205,-0.2086,-0.2095,-0.2119,-0.214,-0.2137,-0.2173,-0.2183,-0.2185,-0.2158,-0.2156,-0.2154,-0.2149,-0.2162,0,0,0,0,0,-0.1819,-0.1843,-0.1888,-0.1907,-0.1921,-0.1959,-0.1975,-0.1996,-0.2028,-0.204,-0.207,-0.2099,-0.2125,-0.2142,-0.2169,-0.219,-0.22,-0.2197,-0.2195,-0.2193,-0.2194,-0.2206,-0.2205,-0.2216,-0.2216,-0.2216,0,0,-0.181,-0.1842,-0.1855,-0.1901,-0.1926,-0.1949,-0.1969,-0.1994,-0.2011,-0.2044,-0.2071,-0.2094,-0.2129,-0.2153,-0.2165,-0.2172,-0.2193,-0.2193,-0.2191,-0.2193,-0.2206,-0.2205,-0.2204,-0.2216,-0.2216,-0.2216,0,0,-0.1804,-0.1831,-0.185,-0.1874,-0.1912,-0.1937,-0.1941,-0.1984,-0.2001,-0.2029,-0.2053,-0.2074,-0.2119,-0.2142,-0.216,-0.2162,-0.218,-0.217,-0.2159,-0.217,-0.217,-0.2169,-0.2169,-0.2169,-0.2171,-0.217,-0.217,0,-0.1788,-0.1825,-0.1857,-0.1879,-0.1899,-0.1929,-0.1948,-0.197,-0.2014,-0.2026,-0.2032,-0.2088,-0.2114,-0.2144,-0.2144,-0.2158,-0.2163,-0.2165,-0.2167,-0.2167,-0.2167,-0.2167,-0.2167,-0.2169,-0.2169,-0.2169,-0.2169,0,-0.1802,-0.1827,-0.1837,-0.1879,-0.1899,-0.192,-0.1954,-0.197,-0.1989,-0.2013,-0.204,-0.2072,-0.2105,-0.2114,-0.2132,-0.2146,-0.2148,-0.216,-0.2171,-0.2164,-0.2165,-0.2165,-0.2167,-0.2167,-0.2168,-0.2168,0,0,-0.1778,-0.1836,-0.184,-0.1859,-0.1902,-0.1921,-0.1942,-0.1975,-0.1988,-0.2017,-0.2035,-0.2071,-0.2082,-0.2102,-0.2123,-0.2133,-0.2132,-0.2144,-0.2146,-0.2141,-0.2148,-0.2139,-0.2138,-0.2144,-0.2144,-0.2144,-0.2145,0,-0.1778,-0.1818,-0.1847,-0.1876,-0.1899,-0.1927,-0.1945,-0.1973,-0.1996,-0.2018,-0.2042,-0.2067,-0.208,-0.2092,-0.2103,-0.213,-0.2134,-0.213,-0.216,-0.2161,-0.2151,-0.2139,-0.213,-0.2129,-0.2146,-0.2146,-0.2146,0,-0.1785,-0.1813,-0.1844,-0.1883,-0.1894,-0.191,-0.1941,-0.1962,-0.1994,-0.2009,-0.2031,-0.2053,-0.2075,-0.2083,-0.2114,-0.2111,-0.2125,-0.2139,-0.214,-0.2144,-0.2153,-0.2143,-0.213,-0.2129,-0.2147,-0.2147,-0.2147,0,-0.1763,-0.1809,-0.1833,-0.1848,-0.1895,-0.1906,-0.1926,-0.1957,-0.1975,-0.2002,-0.2013,-0.2042,-0.2058,-0.208,-0.2108,-0.2112,-0.2136,-0.2147,-0.2149,-0.2148,-0.2153,-0.2152,-0.2142,-0.2162,-0.2162,-0.2162,-0.2162,0,-0.1761,-0.1779,-0.1824,-0.1839,-0.1859,-0.1891,-0.191,-0.1932,-0.196,-0.1979,-0.2005,-0.2022,-0.2058,-0.2079,-0.2102,-0.2123,-0.213,-0.2143,-0.2148,-0.2141,-0.2139,-0.215,-0.2151,-0.2162,-0.2162,-0.2162,-0.2162,0,-0.1741,-0.1772,-0.18,-0.1842,-0.1853,-0.1866,-0.1901,-0.1916,-0.1939,-0.1963,-0.197,-0.2006,-0.2033,-0.2063,-0.2099,-0.2114,-0.2133,-0.2142,-0.2123,-0.2126,-0.2126,-0.2125,-0.2122,-0.2123,-0.2142,-0.2142,-0.2142,0,-0.1738,-0.1752,-0.1795,-0.181,-0.1829,-0.1853,-0.187,-0.1902,-0.1919,-0.1955,-0.1966,-0.1994,-0.2018,-0.2058,-0.2087,-0.2114,-0.2124,-0.2121,-0.2128,-0.2119,-0.2123,-0.2122,-0.2123,-0.2119,-0.2118,-0.2118,-0.2118,0,-0.1729,-0.1743,-0.1768,-0.1798,-0.1818,-0.1843,-0.1868,-0.1879,-0.1915,-0.1933,-0.196,-0.1979,-0.2015,-0.2042,-0.2073,-0.2093,-0.2111,-0.2115,-0.2117,-0.2109,-0.2097,-0.2103,-0.2117,-0.2115,-0.2115,-0.2116,-0.2116,-0.2116,-0.1717,-0.1731,-0.1763,-0.1789,-0.1812,-0.1835,-0.1851,-0.1876,-0.1899,-0.1931,-0.1948,-0.1974,-0.2004,-0.2048,-0.2066,-0.2087,-0.2093,-0.2096,-0.2097,-0.2097,-0.2094,-0.2094,-0.2093,-0.2093,-0.2093,-0.2093,-0.2093,0,-0.1709,-0.1731,-0.1755,-0.179,-0.181,-0.1826,-0.1854,-0.187,-0.1893,-0.192,-0.1943,-0.1973,-0.1999,-0.203,-0.2058,-0.2068,-0.2077,-0.2074,-0.2074,-0.2078,-0.2087,-0.2083,-0.2066,-0.2066,-0.2066,-0.2066,-0.2066,-0.2066,-0.1707,-0.1731,-0.1748,-0.1783,-0.1804,-0.1831,-0.1846,-0.1867,-0.1888,-0.1921,-0.1942,-0.1962,-0.199,-0.202,-0.2044,-0.2052,-0.2061,-0.2056,-0.2067,-0.2075,-0.2077,-0.2079,-0.2075,-0.2058,-0.2058,-0.2055,-0.2055,-0.2055]},{"header":{"parameterUnit":"m.s-1","parameterCategory":1,"la1":30.2991,"la2":30.254,"lo1":-89.0895,"lo2":-89.0444,"dy":0.0017,"dx":0.0017,"nx":28,"ny":28,"refTime":"2023-08-27T21:00:00:Z","depth":0,"parameterNumber":3,"parameterNumberName":"V-component_of_WINDS"},"data":[0,0,0,0,0,0,0,0,0,0,0,0,0,0,0,0,0,0,0,0,0,0,0,0,0,0,0,0,0,0,0,0,0,0,0,0,0,0,0,0,0,0,0,0,0,0,0,0,0,0,0,0,0,0,0,0,0,0,-2.1532,-2.1532,0,-2.1514,-2.1514,-2.1514,-2.1478,-2.1478,-2.1477,-2.1476,-2.1455,-2.1455,-2.1455,0,0,0,0,0,0,0,0,0,0,0,0,0,-2.1535,-2.1535,-2.1532,-2.1532,-2.1532,-2.1514,-2.1514,-2.1514,-2.1478,-2.1478,-2.1477,-2.1476,-2.1455,-2.1455,-2.1455,0,0,0,0,0,0,0,0,0,0,0,0,0,-2.1527,-2.1535,-2.1532,-2.1512,-2.151,-2.1514,-2.1514,-2.1514,-2.1479,-2.1478,-2.1476,-2.1476,-2.1455,-2.1455,-2.1455,-2.1477,0,0,-2.1456,-2.1456,0,0,0,0,0,0,0,0,-2.1528,-2.1527,-2.1515,-2.1514,-2.1511,-2.1498,-2.1507,-2.1501,-2.1479,-2.1491,-2.1476,-2.1475,-2.147,-2.1469,-2.1467,-2.1476,-2.1475,-2.1456,-2.1456,-2.1456,-2.1456,0,0,0,0,0,0,0,-2.1528,-2.1528,-2.1525,-2.1515,-2.1513,-2.1504,-2.1501,-2.1506,-2.1486,-2.1489,-2.1487,-2.1485,-2.1468,-2.1467,-2.1467,-2.1474,-2.1456,-2.1456,-2.1456,-2.1456,-2.1502,-2.1503,0,0,0,0,0,0,-2.1532,-2.1528,-2.1526,-2.1525,-2.1517,-2.1505,-2.1502,-2.1503,-2.1486,-2.1482,-2.1486,-2.1484,-2.1468,-2.1467,-2.1466,-2.1491,-2.1456,-2.1456,-2.1456,-2.1501,-2.1502,-2.1503,0,0,0,0,0,0,-2.1532,-2.1532,-2.1526,-2.1526,-2.1524,-2.1506,-2.1507,-2.1503,-2.1502,-2.1484,-2.148,-2.1489,-2.1467,-2.1466,-2.1475,-2.149,-2.1456,-2.1456,-2.1499,-2.1501,-2.1503,-2.1542,0,0,0,0,0,0,-2.1532,-2.1532,-2.1541,-2.1526,-2.1525,-2.1536,-2.1508,-2.1504,-2.1503,-2.1499,-2.1485,-2.1482,-2.1466,-2.1475,-2.1475,-2.149,-2.1456,-2.1498,-2.15,-2.1502,-2.1539,-2.1545,-2.155,0,0,0,0,0,-2.1533,-2.1551,-2.1541,-2.1541,-2.1535,-2.1537,-2.1536,-2.1519,-2.1504,-2.1512,-2.1501,-2.1482,-2.1488,-2.1476,-2.1476,-2.1491,-2.1497,-2.1499,-2.1502,-2.1537,-2.1544,-2.155,0,0,0,0,0,0,-2.1566,-2.1549,-2.1537,-2.1552,-2.1547,-2.1531,-2.1541,-2.1526,-2.1524,-2.1521,-2.1498,-2.1495,-2.1508,-2.15,-2.1487,-2.1512,-2.149,-2.1492,-2.1517,-2.1523,-2.1528,-2.153,-2.1456,0,0,0,0,0,-2.1576,-2.158,-2.1564,-2.1579,-2.1577,-2.156,-2.156,-2.1547,-2.154,-2.1537,-2.1526,-2.152,-2.152,-2.1521,-2.152,-2.1538,-2.1535,-2.1548,-2.1554,-2.1558,-2.1561,-2.1571,-2.1577,-2.1512,-2.1512,-2.1512,0,0,-2.1595,-2.1586,-2.159,-2.1586,-2.158,-2.1585,-2.1558,-2.1563,-2.1567,-2.1538,-2.1547,-2.1539,-2.153,-2.1544,-2.155,-2.1538,-2.1578,-2.1561,-2.1565,-2.1565,-2.1575,-2.1581,-2.1586,-2.1513,-2.1513,-2.1513,0,0,-2.1632,-2.1625,-2.1638,-2.1633,-2.1625,-2.1614,-2.1617,-2.1605,-2.1599,-2.1607,-2.1586,-2.159,-2.1591,-2.1586,-2.1584,-2.1622,-2.1605,-2.1622,-2.1649,-2.166,-2.1665,-2.167,-2.1685,-2.169,-2.1625,-2.1625,-2.1625,0,-2.1656,-2.1664,-2.1646,-2.1654,-2.1653,-2.1629,-2.1641,-2.1637,-2.1629,-2.1629,-2.1617,-2.1619,-2.1611,-2.1625,-2.1635,-2.1633,-2.1636,-2.1624,-2.1666,-2.167,-2.1674,-2.1688,-2.1694,-2.1627,-2.1627,-2.1627,-2.1626,0,-2.1695,-2.17,-2.1711,-2.1706,-2.1707,-2.1717,-2.17,-2.1703,-2.169,-2.1681,-2.1691,-2.1681,-2.1679,-2.1681,-2.1668,-2.1693,-2.1687,-2.167,-2.1648,-2.1683,-2.1696,-2.1701,-2.163,-2.1629,-2.1629,-2.1628,0,0,-2.1752,-2.1739,-2.1743,-2.1741,-2.1732,-2.1736,-2.1745,-2.1744,-2.1748,-2.1743,-2.1751,-2.1754,-2.174,-2.1737,-2.1724,-2.1733,-2.1766,-2.1716,-2.1715,-2.1726,-2.1795,-2.1808,-2.1815,-2.1755,-2.1756,-2.1756,-2.1796,0,-2.1788,-2.1805,-2.179,-2.1809,-2.1815,-2.1792,-2.1801,-2.1796,-2.1787,-2.1791,-2.178,-2.1784,-2.1764,-2.1762,-2.1771,-2.176,-2.1779,-2.1757,-2.1762,-2.1763,-2.1766,-2.1821,-2.1834,-2.1873,-2.1801,-2.1802,-2.1803,0,-2.1832,-2.1832,-2.1853,-2.1844,-2.1846,-2.1854,-2.1853,-2.1856,-2.1851,-2.1844,-2.1843,-2.1827,-2.1836,-2.1814,-2.1826,-2.1811,-2.1813,-2.1808,-2.1809,-2.181,-2.1785,-2.1824,-2.1884,-2.1891,-2.181,-2.1809,-2.1809,0,-2.1874,-2.1879,-2.1892,-2.1891,-2.1881,-2.1887,-2.1883,-2.1877,-2.1878,-2.1877,-2.1878,-2.1877,-2.1877,-2.1877,-2.1862,-2.1847,-2.1878,-2.1854,-2.1873,-2.1873,-2.188,-2.188,-2.1943,-2.188,-2.1879,-2.1879,-2.1879,0,-2.1916,-2.193,-2.1911,-2.1919,-2.1934,-2.1917,-2.1932,-2.1926,-2.1921,-2.1927,-2.1907,-2.1914,-2.1893,-2.1898,-2.1886,-2.1899,-2.1899,-2.1894,-2.1891,-2.1896,-2.1897,-2.1897,-2.1895,-2.1881,-2.188,-2.188,-2.188,0,-2.1965,-2.1953,-2.1967,-2.1957,-2.1954,-2.1966,-2.1957,-2.1965,-2.1956,-2.1965,-2.1966,-2.1951,-2.1955,-2.1941,-2.1942,-2.1934,-2.1954,-2.1946,-2.1957,-2.1954,-2.1975,-2.1974,-2.204,-2.2049,-2.1979,-2.198,-2.1981,0,-2.1994,-2.2004,-2.1996,-2.2,-2.1997,-2.2003,-2.2005,-2.1989,-2.1991,-2.1987,-2.1995,-2.1999,-2.2,-2.2009,-2.1998,-2.2,-2.1992,-2.2015,-2.1992,-2.1998,-2.1994,-2.1994,-2.1996,-2.202,-2.2021,-2.2022,-2.2022,0,-2.2046,-2.204,-2.2044,-2.2046,-2.2049,-2.205,-2.2049,-2.2053,-2.2036,-2.204,-2.2045,-2.2047,-2.205,-2.2054,-2.2054,-2.2049,-2.2033,-2.203,-2.2035,-2.2041,-2.2047,-2.2046,-2.1971,-2.2028,-2.2028,-2.2027,-2.2027,-2.2027,-2.2086,-2.2095,-2.2092,-2.2097,-2.2095,-2.2096,-2.2103,-2.2096,-2.21,-2.2102,-2.2092,-2.21,-2.2095,-2.2094,-2.2091,-2.2097,-2.2086,-2.2092,-2.2094,-2.2096,-2.2101,-2.2046,-2.2096,-2.2096,-2.2096,-2.2096,-2.2096,0,-2.2138,-2.2136,-2.2141,-2.2142,-2.2147,-2.2132,-2.2131,-2.2136,-2.2144,-2.2142,-2.2145,-2.2152,-2.2156,-2.2146,-2.2149,-2.2156,-2.2149,-2.2157,-2.2157,-2.2156,-2.2109,-2.2106,-2.2163,-2.2163,-2.2163,-2.2163,-2.2163,-2.2163,-2.2166,-2.2182,-2.2176,-2.219,-2.2187,-2.2196,-2.2196,-2.2197,-2.2195,-2.2205,-2.2209,-2.2203,-2.2198,-2.22,-2.2204,-2.2201,-2.2203,-2.2215,-2.2209,-2.2166,-2.2159,-2.2153,-2.215,-2.2215,-2.2215,-2.2256,-2.2256,-2.2257]}]]